Terminal Aerodrome Forecast
Issued by NWS

Home | Current Version | Previous Version | Text Only | Print | Product List | Glossary On
Versions: 1 2 3 4 5 6 7 8 9 10 11 12 13 14 15 16 17 18 19 20 21 22 23 24 25 26 27 28 29 30 31 32 33 34 35 36 37 38 39 40 41 42
000
FTAK31 PAFA 231738
TAFASC
TAF
PASC 231738Z 2318/2418 09018KT P6SM VCSH SCT015 OVC025
      TEMPO 2318/2321 4SM -SHSN BR SCT015 OVC025
     FM232100 09018KT 4SM -SHSN BR BKN015 OVC025
     FM240400 10015KT 2SM -SHSN BR OVC015=

USA.gov is the U.S. government's official web portal to all federal, state and local government web resources and services.